TimeCST,TemperatureF,Dew PointF,Humidity,Sea Level PressureIn,VisibilityMPH,Wind Direction,Wind SpeedMPH,Gust SpeedMPH,PrecipitationIn,Events,Conditions,WindDirDegrees,DateUTC
12:15 AM,24.8,19.4,80,30.07,2.5,ENE,13.8,-,N/A,Snow,Light Snow,70,2013-02-22 06:15:00
12:55 AM,24.8,19.4,80,30.04,10.0,East,17.3,21.9,N/A,,Overcast,80,2013-02-22 06:55:00
1:15 AM,24.8,19.4,80,30.02,10.0,ENE,18.4,23.0,N/A,Snow,Light Snow,70,2013-02-22 07:15:00
1:35 AM,23.0,21.2,93,30.00,0.2,ENE,15.0,21.9,N/A,Snow,Snow,60,2013-02-22 07:35:00
1:55 AM,23.0,21.2,93,29.97,0.2,ENE,16.1,-,N/A,Snow,Snow,60,2013-02-22 07:55:00
2:15 AM,23.0,21.2,93,29.95,0.2,ENE,18.4,25.3,N/A,Snow,Heavy Snow,60,2013-02-22 08:15:00
2:35 AM,23.0,23.0,100,29.95,0.2,ENE,18.4,23.0,0.01,Snow,Snow,60,2013-02-22 08:35:00
2:55 AM,23.0,21.2,93,29.92,0.5,ENE,17.3,27.6,0.02,Snow,Light Snow,60,2013-02-22 08:55:00
3:15 AM,23.0,21.2,93,29.93,1.2,East,17.3,21.9,N/A,Snow,Light Snow,80,2013-02-22 09:15:00
3:35 AM,23.0,21.2,93,29.92,1.0,ENE,15.0,23.0,N/A,Snow,Light Snow,70,2013-02-22 09:35:00
3:55 AM,23.0,21.2,93,29.91,1.0,East,16.1,24.2,0.01,Snow,Light Snow,80,2013-02-22 09:55:00
4:15 AM,23.0,21.2,93,29.91,0.8,East,12.7,17.3,N/A,Snow,Light Snow,80,2013-02-22 10:15:00
4:35 AM,23.0,21.2,93,29.91,0.5,East,12.7,21.9,0.01,Snow,Snow,80,2013-02-22 10:35:00
4:55 AM,24.8,21.2,86,29.90,2.0,East,15.0,-,0.01,Snow,Light Snow,80,2013-02-22 10:55:00
5:15 AM,24.8,23.0,93,29.89,1.2,East,15.0,-,N/A,Snow,Light Snow,80,2013-02-22 11:15:00
5:35 AM,24.8,23.0,93,29.88,4.0,East,13.8,-,N/A,Snow,Light Snow,80,2013-02-22 11:35:00
5:55 AM,24.8,21.2,86,29.87,5.0,East,15.0,19.6,N/A,Snow,Light Snow,80,2013-02-22 11:55:00
6:15 AM,26.6,21.2,80,29.86,7.0,East,16.1,21.9,N/A,,Overcast,90,2013-02-22 12:15:00
6:35 AM,26.6,23.0,86,29.85,10.0,East,13.8,-,N/A,,Overcast,90,2013-02-22 12:35:00
6:55 AM,26.6,23.0,86,29.85,10.0,East,13.8,-,N/A,,Overcast,90,2013-02-22 12:55:00
7:15 AM,26.6,23.0,86,29.85,10.0,East,13.8,-,N/A,,Overcast,100,2013-02-22 13:15:00
7:35 AM,28.4,23.0,80,29.85,10.0,East,15.0,18.4,N/A,,Overcast,100,2013-02-22 13:35:00
7:55 AM,28.4,23.0,80,29.84,10.0,East,12.7,-,N/A,,Overcast,100,2013-02-22 13:55:00
8:15 AM,28.4,23.0,80,29.83,10.0,East,9.2,-,N/A,,Overcast,100,2013-02-22 14:15:00
8:35 AM,28.4,24.8,86,29.82,10.0,ESE,10.4,-,N/A,,Overcast,110,2013-02-22 14:35:00
8:55 AM,28.4,24.8,86,29.82,10.0,East,10.4,-,N/A,,Overcast,100,2013-02-22 14:55:00
9:15 AM,28.4,24.8,86,29.83,10.0,ESE,10.4,-,N/A,,Overcast,110,2013-02-22 15:15:00
9:35 AM,28.4,24.8,86,29.82,7.0,ESE,9.2,-,N/A,,Overcast,110,2013-02-22 15:35:00
9:55 AM,28.4,26.6,93,29.83,5.0,SE,9.2,-,N/A,,Overcast,130,2013-02-22 15:55:00
10:15 AM,28.4,26.6,93,29.82,5.0,ESE,8.1,-,N/A,,Overcast,120,2013-02-22 16:15:00
10:35 AM,28.4,26.6,93,29.82,3.0,SE,6.9,-,N/A,Snow,Light Snow,130,2013-02-22 16:35:00
10:55 AM,28.4,26.6,93,29.82,3.0,SE,5.8,-,N/A,Snow,Light Snow,130,2013-02-22 16:55:00
11:15 AM,28.4,26.6,93,29.83,2.5,SE,5.8,-,N/A,Snow,Light Snow,140,2013-02-22 17:15:00
11:35 AM,28.4,26.6,93,29.83,5.0,SE,5.8,-,N/A,Snow,Light Snow,140,2013-02-22 17:35:00
11:55 AM,28.4,26.6,93,29.82,5.0,SE,5.8,-,N/A,Snow,Light Snow,140,2013-02-22 17:55:00
12:15 PM,30.2,26.6,86,29.81,4.0,SE,4.6,-,N/A,Snow,Light Snow,130,2013-02-22 18:15:00
12:35 PM,30.2,26.6,86,29.80,2.5,SE,3.5,-,N/A,Snow,Light Snow,130,2013-02-22 18:35:00
1:15 PM,30.2,26.6,86,29.78,5.0,Calm,Calm,-,N/A,Snow,Light Snow,0,2013-02-22 19:15:00
1:35 PM,30.2,26.6,86,29.78,7.0,SSE,3.5,-,N/A,Snow,Light Snow,150,2013-02-22 19:35:00
1:55 PM,30.2,24.8,80,29.77,10.0,ESE,4.6,-,N/A,,Overcast,120,2013-02-22 19:55:00
2:15 PM,30.2,24.8,80,29.77,7.0,ESE,3.5,-,N/A,Snow,Light Snow,110,2013-02-22 20:15:00
2:35 PM,30.2,24.8,80,29.78,7.0,Calm,Calm,-,N/A,Snow,Light Snow,0,2013-02-22 20:35:00
2:55 PM,30.2,24.8,80,29.79,7.0,SW,4.6,-,N/A,Snow,Light Snow,220,2013-02-22 20:55:00
3:15 PM,30.2,24.8,80,29.80,10.0,SW,6.9,-,N/A,,Overcast,220,2013-02-22 21:15:00
3:35 PM,30.2,24.8,80,29.80,10.0,SW,6.9,-,N/A,Snow,Light Snow,220,2013-02-22 21:35:00
3:55 PM,30.2,24.8,80,29.80,5.0,SW,6.9,-,N/A,Snow,Light Snow,220,2013-02-22 21:55:00
4:15 PM,30.2,26.6,86,29.79,7.0,WSW,4.6,-,N/A,Snow,Light Snow,240,2013-02-22 22:15:00
4:35 PM,28.4,26.6,93,29.79,10.0,WSW,4.6,-,N/A,Snow,Light Snow,250,2013-02-22 22:35:00
4:55 PM,28.4,24.8,86,29.79,10.0,WSW,4.6,-,N/A,,Overcast,240,2013-02-22 22:55:00
5:15 PM,28.4,24.8,86,29.80,10.0,SW,5.8,-,N/A,,Overcast,230,2013-02-22 23:15:00
5:35 PM,28.4,24.8,86,29.81,10.0,SW,4.6,-,N/A,,Overcast,230,2013-02-22 23:35:00
5:55 PM,28.4,24.8,86,29.81,7.0,SW,5.8,-,N/A,,Overcast,230,2013-02-22 23:55:00
6:15 PM,28.4,24.8,86,29.81,7.0,SW,5.8,-,N/A,,Overcast,220,2013-02-23 00:15:00
6:35 PM,28.4,24.8,86,29.81,7.0,SW,5.8,-,N/A,Snow,Light Snow,230,2013-02-23 00:35:00
6:55 PM,28.4,24.8,86,29.82,7.0,SW,6.9,-,N/A,,Overcast,220,2013-02-23 00:55:00
7:15 PM,28.4,24.8,86,29.82,7.0,SW,6.9,-,N/A,,Overcast,220,2013-02-23 01:15:00
7:35 PM,28.4,24.8,86,29.82,7.0,SW,6.9,-,N/A,,Overcast,230,2013-02-23 01:35:00
7:55 PM,28.4,24.8,86,29.82,7.0,SW,8.1,-,N/A,,Overcast,220,2013-02-23 01:55:00
8:15 PM,28.4,24.8,86,29.82,7.0,SW,6.9,-,N/A,,Overcast,220,2013-02-23 02:15:00
8:35 PM,28.4,24.8,86,29.82,5.0,SW,6.9,-,N/A,Snow,Light Snow,230,2013-02-23 02:35:00
8:55 PM,28.4,24.8,86,29.83,7.0,SW,8.1,-,N/A,,Overcast,230,2013-02-23 02:55:00
9:15 PM,28.4,24.8,86,29.83,7.0,SW,9.2,-,N/A,Snow,Light Snow,230,2013-02-23 03:15:00
9:35 PM,28.4,24.8,86,29.83,7.0,SW,9.2,-,N/A,Snow,Light Snow,230,2013-02-23 03:35:00
9:55 PM,28.4,23.0,80,29.83,7.0,WSW,9.2,-,N/A,,Overcast,240,2013-02-23 03:55:00
10:15 PM,28.4,23.0,80,29.83,10.0,WSW,9.2,-,N/A,,Overcast,240,2013-02-23 04:15:00
10:35 PM,28.4,23.0,80,29.83,10.0,WSW,10.4,-,N/A,,Overcast,240,2013-02-23 04:35:00
10:55 PM,28.4,23.0,80,29.82,10.0,WSW,9.2,-,N/A,,Overcast,250,2013-02-23 04:55:00
11:15 PM,28.4,23.0,80,29.82,10.0,WSW,9.2,-,N/A,,Overcast,250,2013-02-23 05:15:00
11:55 PM,28.4,23.0,80,29.82,10.0,WSW,9.2,-,N/A,,Overcast,240,2013-02-23 05:55:00